San Benito, TX

1:24 PM CDT on September 27, 2016 (GMT -0500)
Valley International

Weather History for KHRL - October, 2011

Change the Weather History Date:

Wednesday, October 26, 2011

  Actual Average Record
Temperature  
Mean Temperature 77 °F 74 °F  
Max Temperature 92 °F 86 °F 95 °F (1947)
Min Temperature 62 °F 63 °F 45 °F (1945)
Degree Days  
Heating Degree Days 0 0  
Month to date heating degree days 0 0  
Since 1 July heating degree days 0 0  
Cooling Degree Days 12 9  
Month to date cooling degree days 348 304  
Year to date cooling degree days 4404 3733  
Growing Degree Days 26 (Base 50)    
Moisture  
Dew Point 62 °F    
Average Humidity 64    
Maximum Humidity 93    
Minimum Humidity 34    
Precipitation  
Precipitation 0.00 in 0.11 in 3.89 in (2003)
Month to date precipitation 0.24 2.54  
Year to date precipitation 6.66 21.97  
Sea Level Pressure  
Sea Level Pressure 29.90 in    
Wind  
Wind Speed 11 mph (SSE)    
Max Wind Speed 24 mph    
Max Gust Speed 32 mph    
Visibility 10 miles    
Events      
T = Trace of Precipitation, MM = Missing Value Source: NWS Daily Summary

Daily Weather History Graph

Daily Weather History Graph

Search for Another Location

Airport or City:

Trip Planner

Search our weather history database for the weather conditions in past years. The results will help you decide how hot, cold, wet, or windy it might be!

Date:

Astronomy

Oct. 26, 2011 Rise Set
Actual Time 7:35 AM CDT 6:53 PM CDT
Civil Twilight 7:12 AM CDT 7:16 PM CDT
Nautical Twilight 6:44 AM CDT 7:43 PM CDT
Astronomical Twilight 6:18 AM CDT 8:10 PM CDT
Moon 7:20 AM CDT (10/26) 6:43 PM CDT (10/26)
Length of Visible Light 12h 04m
Length of Day
11h 17m
Waning Crescent, 0% of the Moon is Illuminated
Oct 26
Waning Crescent
Oct 26
New
Nov 2
First Quarter
Nov 10
Full
Nov 18
Last Quarter

Hourly Weather History & Observations

Time (CDT) Temp. Heat Index Dew Point Humidity Pressure Visibility Wind Dir Wind Speed Gust Speed Precip Events Conditions
12:52 AM 66.9 °F - 62.1 °F 84% 29.99 in 10.0 mi SSE 6.9 mph - N/A   Clear
1:52 AM 66.0 °F - 63.0 °F 90% 29.98 in 10.0 mi SSE 8.1 mph - N/A   Clear
2:52 AM 66.9 °F - 63.0 °F 87% 29.96 in 10.0 mi SE 8.1 mph - N/A   Clear
3:52 AM 66.0 °F - 63.0 °F 90% 29.95 in 10.0 mi SSE 4.6 mph - N/A   Clear
4:52 AM 64.9 °F - 62.1 °F 90% 29.93 in 10.0 mi SSE 5.8 mph - N/A   Clear
5:52 AM 64.9 °F - 62.1 °F 90% 29.93 in 10.0 mi SSE 5.8 mph - N/A   Clear
6:52 AM 62.6 °F - 60.8 °F 94% 29.93 in 10.0 mi SE 5.8 mph - N/A   Clear
7:52 AM 64.0 °F - 62.1 °F 93% 29.94 in 10.0 mi SSE 3.5 mph - N/A   Clear
8:52 AM 71.1 °F - 64.9 °F 81% 29.94 in 10.0 mi South 4.6 mph - N/A   Clear
9:52 AM 78.8 °F - 66.2 °F 65% 29.96 in 10.0 mi South 11.5 mph - N/A   Clear
10:13 AM 80.6 °F 82.7 °F 66.2 °F 61% 29.96 in 10.0 mi South 13.8 mph - N/A   Clear
10:52 AM 82.9 °F 85.4 °F 66.9 °F 58% 29.96 in 10.0 mi South 15.0 mph 23.0 mph N/A   Clear
11:52 AM 84.9 °F 86.1 °F 64.0 °F 49% 29.94 in 10.0 mi South 17.3 mph 25.3 mph N/A   Partly Cloudy
12:52 PM 91.0 °F 91.5 °F 62.1 °F 38% 29.92 in 10.0 mi South 18.4 mph 25.3 mph N/A   Mostly Cloudy
1:52 PM 87.8 °F 87.6 °F 60.8 °F 40% 29.88 in 10.0 mi SSE 16.1 mph - N/A   Scattered Clouds
2:52 PM 90.0 °F 88.8 °F 57.9 °F 34% 29.85 in 10.0 mi South 18.4 mph 27.6 mph N/A   Scattered Clouds
3:52 PM 90.0 °F 89.1 °F 59.0 °F 35% 29.83 in 10.0 mi South 19.6 mph 26.5 mph N/A   Scattered Clouds
4:52 PM 89.1 °F 88.0 °F 57.9 °F 35% 29.82 in 10.0 mi SSE 15.0 mph 23.0 mph N/A   Clear
5:52 PM 86.0 °F 85.4 °F 59.0 °F 40% 29.82 in 10.0 mi SSE 18.4 mph 25.3 mph N/A   Clear
6:52 PM 81.0 °F 82.5 °F 64.0 °F 56% 29.83 in 10.0 mi SSE 13.8 mph - N/A   Clear
7:52 PM 78.1 °F - 64.0 °F 62% 29.84 in 10.0 mi SE 12.7 mph - N/A   Clear
8:52 PM 73.9 °F - 64.0 °F 71% 29.85 in 10.0 mi SE 9.2 mph - N/A   Clear
9:52 PM 72.0 °F - 63.0 °F 73% 29.86 in 10.0 mi SE 8.1 mph - N/A   Clear
10:52 PM 68.0 °F - 62.1 °F 81% 29.86 in 10.0 mi SE 6.9 mph - N/A   Clear
11:52 PM 68.0 °F - 62.1 °F 81% 29.85 in 10.0 mi SE 6.9 mph - N/A   Clear